| time (UTC) | temp F | wind direction | speed MPH | gust MPH | rain 1hr in | rain 24hr in | rain mn in | humidity % | barometer mb |
| 20260510075042 | 59 | 31 | 3.0 | 14.0 | 0.00 | 0.00 | 0.00 | 68 | 1015.3 |
| 20260510074552 | 58 | 178 | 5.0 | 14.0 | 0.00 | 0.00 | 0.00 | 69 | 1015.3 |
| 20260510074042 | 58 | 338 | 3.0 | 11.0 | 0.00 | 0.00 | 0.00 | 70 | 1015.4 |
| 20260510073541 | 58 | 51 | 2.0 | 11.0 | 0.00 | 0.00 | 0.00 | 69 | 1015.5 |
| 20260510073100 | 58 | 9 | 3.0 | 13.0 | 0.00 | 0.00 | 0.00 | 71 | 1015.6 |
| 20260510072541 | 57 | 33 | 4.0 | 13.0 | 0.00 | 0.00 | 0.00 | 71 | 1015.7 |
| 20260510072045 | 57 | 342 | 2.0 | 9.0 | 0.00 | 0.00 | 0.00 | 72 | 1015.8 |
| 20260510071548 | 57 | 282 | 2.0 | 9.0 | 0.00 | 0.00 | 0.00 | 73 | 1015.8 |
| 20260510071040 | 56 | 51 | 3.0 | 9.0 | 0.00 | 0.00 | 0.00 | 74 | 1015.7 |
| 20260510070543 | 56 | 309 | 2.0 | 9.0 | 0.00 | 0.00 | 0.00 | 75 | 1015.8 |
| 20260510070049 | 56 | 51 | 3.0 | 11.0 | 0.00 | 0.00 | 0.00 | 75 | 1015.7 |
| 20260510065542 | 55 | 0 | 3.0 | 11.0 | 0.00 | 0.00 | 0.00 | 76 | 1015.7 |
| 20260510065038 | 55 | 45 | 4.0 | 11.0 | 0.00 | 0.00 | 0.00 | 76 | 1015.7 |
| 20260510064543 | 55 | 24 | 3.0 | 13.0 | 0.00 | 0.00 | 0.00 | 78 | 1015.8 |
| 20260510064042 | 54 | 33 | 3.0 | 13.0 | 0.00 | 0.00 | 0.00 | 79 | 1015.7 |
| 20260510063542 | 54 | 328 | 2.0 | 11.0 | 0.00 | 0.00 | 0.00 | 79 | 1015.7 |
| 20260510063049 | 53 | 38 | 3.0 | 11.0 | 0.00 | 0.00 | 0.00 | 81 | 1015.7 |
| 20260510062539 | 53 | 38 | 3.0 | 11.0 | 0.00 | 0.00 | 0.00 | 81 | 1015.8 |
| 20260510062039 | 53 | 279 | 2.0 | 7.0 | 0.00 | 0.00 | 0.00 | 82 | 1015.7 |
| 20260510061600 | 53 | 294 | 2.0 | 9.0 | 0.00 | 0.00 | 0.00 | 83 | 1015.8 |
| 20260510061041 | 52 | 51 | 2.0 | 9.0 | 0.00 | 0.00 | 0.00 | 83 | 1015.8 |
| 20260510060545 | 52 | 312 | 2.0 | 9.0 | 0.00 | 0.00 | 0.00 | 83 | 1015.8 |
| 20260510060048 | 52 | 9 | 2.0 | 9.0 | 0.00 | 0.00 | 0.00 | 84 | 1015.7 |
| 20260510055539 | 52 | 294 | 2.0 | 8.0 | 0.00 | 0.00 | 0.00 | 84 | 1015.6 |
| 20260510055043 | 52 | 61 | 2.0 | 10.0 | 0.00 | 0.00 | 0.00 | 85 | 1015.6 |
| 20260510054605 | 52 | 309 | 1.0 | 10.0 | 0.00 | 0.00 | 0.00 | 85 | 1015.7 |
| 20260510054040 | 51 | 61 | 1.0 | 7.0 | 0.00 | 0.00 | 0.00 | 85 | 1015.7 |
| 20260510053541 | 51 | 49 | 1.0 | 7.0 | 0.00 | 0.00 | 0.00 | 86 | 1015.7 |
| 20260510053048 | 51 | 93 | 1.0 | 5.0 | 0.00 | 0.00 | 0.00 | 86 | 1015.6 |
| 20260510052540 | 51 | 0 | 1.0 | 4.0 | 0.00 | 0.00 | 0.00 | 86 | 1015.7 |
| 20260510052043 | 51 | 41 | 1.0 | 4.0 | 0.00 | 0.00 | 0.00 | 86 | 1015.7 |
| 20260510051554 | 51 | 309 | 1.0 | 4.0 | 0.00 | 0.00 | 0.00 | 86 | 1015.7 |
| 20260510051042 | 51 | 341 | 1.0 | 5.0 | 0.00 | 0.00 | 0.00 | 86 | 1015.7 |
| 20260510050541 | 51 | 0 | 1.0 | 5.0 | 0.00 | 0.00 | 0.00 | 86 | 1015.6 |
| 20260510050058 | 51 | 330 | 1.0 | 5.0 | 0.00 | 0.00 | 0.00 | 86 | 1015.8 |
| 20260510045541 | 51 | 19 | 1.0 | 5.0 | 0.00 | 0.00 | 0.00 | 86 | 1015.7 |
| 20260510045044 | 51 | 22 | 1.0 | 5.0 | 0.00 | 0.00 | 0.00 | 86 | 1015.7 |
| 20260510044558 | 51 | 56 | 1.0 | 5.0 | 0.00 | 0.00 | 0.00 | 86 | 1015.7 |
| 20260510044041 | 51 | 340 | 1.0 | 5.0 | 0.00 | 0.00 | 0.00 | 86 | 1015.7 |
| 20260510043541 | 51 | 329 | 1.0 | 5.0 | 0.00 | 0.00 | 0.00 | 85 | 1015.6 |
| 20260510043048 | 51 | 329 | 1.0 | 5.0 | 0.00 | 0.00 | 0.00 | 85 | 1015.6 |
| 20260510042541 | 50 | 61 | 1.0 | 6.0 | 0.00 | 0.00 | 0.00 | 85 | 1015.6 |
| 20260510042042 | 50 | 63 | 2.0 | 6.0 | 0.00 | 0.00 | 0.00 | 85 | 1015.5 |
| 20260510041636 | 50 | 63 | 1.0 | 4.0 | 0.00 | 0.00 | 0.00 | 85 | 1015.5 |
| 20260510041043 | 50 | 51 | 1.0 | 4.0 | 0.00 | 0.00 | 0.00 | 85 | 1015.5 |
| 20260510040545 | 50 | 49 | 1.0 | 4.0 | 0.00 | 0.00 | 0.00 | 85 | 1015.6 |
| 20260510040049 | 50 | 29 | 1.0 | 4.0 | 0.00 | 0.00 | 0.00 | 85 | 1015.6 |
| 20260510035541 | 50 | 334 | 0.0 | 4.0 | 0.00 | 0.00 | 0.00 | 85 | 1015.5 |
| 20260510035041 | 50 | 282 | 1.0 | 4.0 | 0.00 | 0.00 | 0.00 | 85 | 1015.5 |
| 20260510034558 | 50 | 295 | 1.0 | 4.0 | 0.00 | 0.00 | 0.00 | 85 | 1015.6 |
| 20260510034043 | 50 | 0 | 1.0 | 4.0 | 0.00 | 0.00 | 0.00 | 84 | 1015.5 |
| 20260510033542 | 50 | 26 | 1.0 | 4.0 | 0.00 | 0.00 | 0.00 | 84 | 1015.6 |
| 20260510033055 | 50 | 32 | 0.0 | 4.0 | 0.00 | 0.00 | 0.00 | 84 | 1015.6 |
| 20260510032541 | 50 | 9 | 0.0 | 4.0 | 0.00 | 0.00 | 0.00 | 84 | 1015.7 |
| 20260510032041 | 50 | 61 | 0.0 | 4.0 | 0.00 | 0.00 | 0.00 | 84 | 1015.7 |
| 20260510031556 | 50 | 93 | 0.0 | 4.0 | 0.00 | 0.00 | 0.00 | 84 | 1015.8 |
| 20260510031044 | 50 | 286 | 0.0 | 4.0 | 0.00 | 0.00 | 0.00 | 84 | 1015.9 |
| 20260510030540 | 50 | 0 | 0.0 | 4.0 | 0.00 | 0.00 | 0.00 | 84 | 1015.8 |
| 20260510030053 | 50 | 0 | 0.0 | 4.0 | 0.00 | 0.00 | 0.00 | 83 | 1015.8 |
| 20260510025541 | 50 | 57 | 0.0 | 4.0 | 0.00 | 0.00 | 0.00 | 83 | 1016.0 |
| 20260510025041 | 50 | 309 | 1.0 | 3.0 | 0.00 | 0.00 | 0.00 | 83 | 1015.8 |
| 20260510024720 | 50 | 9 | 0.0 | 3.0 | 0.00 | 0.00 | 0.00 | 83 | 1015.9 |
| 20260510024040 | 50 | 38 | 0.0 | 3.0 | 0.00 | 0.00 | 0.00 | 83 | 1015.7 |
| 20260510023541 | 50 | 0 | 0.0 | 3.0 | 0.00 | 0.00 | 0.00 | 83 | 1015.7 |
| 20260510023100 | 50 | 34 | 0.0 | 2.0 | 0.00 | 0.00 | 0.00 | 83 | 1015.8 |
| 20260510022542 | 50 | 0 | 0.0 | 3.0 | 0.00 | 0.00 | 0.00 | 82 | 1015.9 |
| 20260510022043 | 50 | 9 | 0.0 | 3.0 | 0.00 | 0.00 | 0.00 | 83 | 1015.8 |
| 20260510021547 | 49 | 334 | 0.0 | 2.0 | 0.00 | 0.00 | 0.00 | 82 | 1015.8 |
| 20260510021041 | 50 | 0 | 0.0 | 2.0 | 0.00 | 0.00 | 0.00 | 82 | 1015.9 |
| 20260510020541 | 50 | 295 | 0.0 | 2.0 | 0.00 | 0.00 | 0.00 | 81 | 1015.9 |
| 20260510020046 | 50 | 0 | 0.0 | 3.0 | 0.00 | 0.00 | 0.00 | 81 | 1015.8 |
| 20260510015539 | 50 | 0 | 0.0 | 3.0 | 0.00 | 0.00 | 0.00 | 81 | 1015.9 |
| 20260510015041 | 50 | 0 | 0.0 | 4.0 | 0.00 | 0.00 | 0.00 | 81 | 1016.0 |
| 20260510014610 | 50 | 51 | 0.0 | 4.0 | 0.00 | 0.00 | 0.00 | 80 | 1015.9 |
| 20260510014041 | 50 | 0 | 0.0 | 4.0 | 0.00 | 0.00 | 0.00 | 80 | 1016.0 |
| 20260510013545 | 50 | 9 | 0.0 | 3.0 | 0.00 | 0.00 | 0.00 | 80 | 1016.0 |
| 20260510013101 | 51 | 0 | 0.0 | 3.0 | 0.00 | 0.00 | 0.00 | 79 | 1016.1 |
| 20260510012545 | 51 | 265 | 0.0 | 3.0 | 0.00 | 0.00 | 0.00 | 79 | 1016.1 |
| 20260510012041 | 51 | 0 | 0.0 | 3.0 | 0.00 | 0.00 | 0.00 | 78 | 1016.0 |
| 20260510011550 | 51 | 0 | 0.0 | 3.0 | 0.00 | 0.00 | 0.00 | 78 | 1016.0 |
| 20260510011041 | 51 | 51 | 0.0 | 3.0 | 0.00 | 0.00 | 0.00 | 78 | 1016.0 |
| 20260510010539 | 51 | 0 | 0.0 | 4.0 | 0.00 | 0.00 | 0.00 | 78 | 1016.1 |
| 20260510010051 | 51 | 0 | 1.0 | 4.0 | 0.00 | 0.00 | 0.00 | 77 | 1016.0 |
| 20260510005543 | 51 | 0 | 0.0 | 3.0 | 0.00 | 0.00 | 0.00 | 77 | 1016.0 |
| 20260510005042 | 51 | 0 | 0.0 | 2.0 | 0.00 | 0.00 | 0.00 | 76 | 1016.3 |
| 20260510004550 | 51 | 0 | 0.0 | 4.0 | 0.00 | 0.00 | 0.00 | 76 | 1016.3 |
| 20260510004041 | 52 | 0 | 0.0 | 4.0 | 0.00 | 0.00 | 0.00 | 76 | 1016.2 |
| 20260510003541 | 52 | 0 | 1.0 | 3.0 | 0.00 | 0.00 | 0.00 | 76 | 1016.2 |
| 20260510003049 | 52 | 0 | 0.0 | 2.0 | 0.00 | 0.00 | 0.00 | 75 | 1016.2 |
| 20260510002540 | 52 | 9 | 0.0 | 2.0 | 0.00 | 0.00 | 0.00 | 75 | 1016.1 |
| 20260510002041 | 52 | 0 | 0.0 | 2.0 | 0.00 | 0.00 | 0.00 | 75 | 1016.2 |
| 20260510001549 | 52 | 309 | 0.0 | 2.0 | 0.00 | 0.00 | 0.00 | 75 | 1016.2 |
| 20260510001041 | 52 | 0 | 0.0 | 3.0 | 0.00 | 0.00 | 0.00 | 75 | 1016.3 |
| 20260510000540 | 52 | 0 | 0.0 | 3.0 | 0.00 | 0.00 | 0.00 | 75 | 1016.4 |
| 20260510000049 | 52 | 9 | 0.0 | 2.0 | 0.00 | 0.00 | 0.00 | 75 | 1016.4 |
| 20260509235551 | 52 | 0 | 0.0 | 2.0 | 0.00 | 0.00 | 0.00 | 74 | 1016.4 |
| 20260509235043 | 52 | 309 | 0.0 | 2.0 | 0.00 | 0.00 | 0.00 | 74 | 1016.5 |
| 20260509234551 | 52 | 0 | 0.0 | 2.0 | 0.00 | 0.00 | 0.00 | 73 | 1016.5 |
| 20260509234041 | 53 | 0 | 0.0 | 2.0 | 0.00 | 0.00 | 0.00 | 73 | 1016.5 |
| 20260509233542 | 53 | 0 | 0.0 | 3.0 | 0.00 | 0.00 | 0.00 | 73 | 1016.6 |
| 20260509233050 | 53 | 325 | 0.0 | 3.0 | 0.00 | 0.00 | 0.00 | 72 | 1016.5 |
| 20260509232541 | 53 | 16 | 0.0 | 3.0 | 0.00 | 0.00 | 0.00 | 72 | 1016.5 |
| 20260509232041 | 53 | 0 | 0.0 | 3.0 | 0.00 | 0.00 | 0.00 | 71 | 1016.5 |
| 20260509231600 | 53 | 51 | 0.0 | 4.0 | 0.00 | 0.00 | 0.00 | 71 | 1016.5 |
| 20260509231041 | 53 | 0 | 0.0 | 4.0 | 0.00 | 0.00 | 0.00 | 72 | 1016.6 |
| 20260509230541 | 53 | 243 | 0.0 | 3.0 | 0.00 | 0.00 | 0.00 | 71 | 1016.5 |
| 20260509230048 | 54 | 319 | 0.0 | 3.0 | 0.00 | 0.00 | 0.00 | 71 | 1016.5 |
| 20260509225541 | 54 | 76 | 0.0 | 4.0 | 0.00 | 0.00 | 0.00 | 70 | 1016.5 |
| 20260509225040 | 54 | 24 | 0.0 | 4.0 | 0.00 | 0.00 | 0.00 | 70 | 1016.5 |
| 20260509224549 | 54 | 0 | 1.0 | 3.0 | 0.00 | 0.00 | 0.00 | 70 | 1016.5 |
| 20260509224045 | 54 | 55 | 0.0 | 4.0 | 0.00 | 0.00 | 0.00 | 70 | 1016.5 |
| 20260509223541 | 54 | 68 | 1.0 | 4.0 | 0.00 | 0.00 | 0.00 | 70 | 1016.5 |
| 20260509223054 | 54 | 0 | 1.0 | 4.0 | 0.00 | 0.00 | 0.00 | 70 | 1016.4 |
| 20260509222542 | 54 | 26 | 1.0 | 4.0 | 0.00 | 0.00 | 0.00 | 70 | 1016.3 |
| 20260509222040 | 55 | 9 | 0.0 | 2.0 | 0.00 | 0.00 | 0.00 | 70 | 1016.5 |
| 20260509221548 | 55 | 44 | 0.0 | 4.0 | 0.00 | 0.00 | 0.00 | 69 | 1016.4 |
| 20260509221039 | 55 | 0 | 0.0 | 4.0 | 0.00 | 0.00 | 0.00 | 69 | 1016.4 |
| 20260509220539 | 55 | 0 | 1.0 | 3.0 | 0.00 | 0.00 | 0.00 | 69 | 1016.4 |
| 20260509220048 | 55 | 0 | 0.0 | 3.0 | 0.00 | 0.00 | 0.00 | 69 | 1016.5 |
| 20260509215545 | 55 | 0 | 0.0 | 3.0 | 0.00 | 0.00 | 0.00 | 69 | 1016.5 |
| 20260509215041 | 55 | 48 | 0.0 | 2.0 | 0.00 | 0.00 | 0.00 | 68 | 1016.6 |
| 20260509214549 | 56 | 309 | 0.0 | 2.0 | 0.00 | 0.00 | 0.00 | 68 | 1016.5 |
| 20260509214046 | 56 | 22 | 0.0 | 4.0 | 0.00 | 0.00 | 0.00 | 67 | 1016.5 |
| 20260509213539 | 56 | 0 | 0.0 | 4.0 | 0.00 | 0.00 | 0.00 | 67 | 1016.4 |
| 20260509213049 | 56 | 28 | 0.0 | 2.0 | 0.00 | 0.00 | 0.00 | 68 | 1016.5 |
| 20260509212540 | 56 | 0 | 0.0 | 3.0 | 0.00 | 0.00 | 0.00 | 67 | 1016.5 |
| 20260509212040 | 57 | 0 | 0.0 | 3.0 | 0.00 | 0.00 | 0.00 | 66 | 1016.4 |
| 20260509211553 | 57 | 0 | 1.0 | 3.0 | 0.00 | 0.00 | 0.00 | 65 | 1016.4 |
| 20260509211039 | 57 | 0 | 0.0 | 5.0 | 0.00 | 0.00 | 0.00 | 65 | 1016.4 |
| 20260509210540 | 58 | 9 | 0.0 | 5.0 | 0.00 | 0.00 | 0.00 | 65 | 1016.3 |
| 20260509210052 | 58 | 51 | 0.0 | 5.0 | 0.00 | 0.00 | 0.00 | 64 | 1016.3 |
| 20260509205540 | 58 | 51 | 1.0 | 6.0 | 0.00 | 0.00 | 0.00 | 64 | 1016.3 |
| 20260509205039 | 58 | 38 | 1.0 | 6.0 | 0.00 | 0.00 | 0.00 | 64 | 1016.3 |
| 20260509204553 | 58 | 41 | 1.0 | 4.0 | 0.00 | 0.00 | 0.00 | 64 | 1016.4 |
| 20260509204041 | 58 | 0 | 1.0 | 4.0 | 0.00 | 0.00 | 0.00 | 64 | 1016.5 |
| 20260509203540 | 59 | 71 | 1.0 | 4.0 | 0.00 | 0.00 | 0.00 | 64 | 1016.4 |
| 20260509203051 | 59 | 0 | 0.0 | 4.0 | 0.00 | 0.00 | 0.00 | 63 | 1016.5 |
| 20260509202540 | 59 | 34 | 1.0 | 4.0 | 0.00 | 0.00 | 0.00 | 63 | 1016.4 |
| 20260509202041 | 59 | 0 | 1.0 | 3.0 | 0.00 | 0.00 | 0.00 | 64 | 1016.6 |
| 20260509201549 | 59 | 0 | 0.0 | 2.0 | 0.00 | 0.00 | 0.00 | 63 | 1016.6 |
| 20260509201040 | 60 | 61 | 0.0 | 2.0 | 0.00 | 0.00 | 0.00 | 63 | 1016.6 |
| 20260509200540 | 60 | 291 | 0.0 | 5.0 | 0.00 | 0.00 | 0.00 | 62 | 1016.6 |
| 20260509200049 | 60 | 0 | 0.0 | 5.0 | 0.00 | 0.00 | 0.00 | 61 | 1016.3 |
| 20260509195541 | 60 | 17 | 0.0 | 5.0 | 0.00 | 0.00 | 0.00 | 61 | 1016.3 |
| 20260509195041 | 60 | 0 | 1.0 | 4.0 | 0.00 | 0.00 | 0.00 | 61 | 1016.2 |
| 20260509194549 | 61 | 41 | 0.0 | 4.0 | 0.00 | 0.00 | 0.00 | 61 | 1016.0 |
| 20260509194040 | 61 | 41 | 0.0 | 4.0 | 0.00 | 0.00 | 0.00 | 61 | 1016.0 |
| 20260509193540 | 61 | 321 | 0.0 | 3.0 | 0.00 | 0.00 | 0.00 | 61 | 1016.0 |
| 20260509193049 | 61 | 51 | 0.0 | 3.0 | 0.00 | 0.00 | 0.00 | 59 | 1016.0 |
| 20260509192540 | 62 | 68 | 0.0 | 3.0 | 0.00 | 0.00 | 0.00 | 59 | 1016.0 |
| 20260509192039 | 62 | 19 | 0.0 | 3.0 | 0.00 | 0.00 | 0.00 | 58 | 1016.0 |
| 20260509191550 | 62 | 9 | 0.0 | 5.0 | 0.00 | 0.00 | 0.00 | 58 | 1016.0 |
| 20260509191040 | 63 | 9 | 0.0 | 5.0 | 0.00 | 0.00 | 0.00 | 58 | 1016.0 |
| 20260509190545 | 63 | 0 | 1.0 | 4.0 | 0.00 | 0.00 | 0.00 | 57 | 1015.9 |
| 20260509190050 | 63 | 34 | 0.0 | 4.0 | 0.00 | 0.00 | 0.00 | 57 | 1015.9 |
| 20260509185539 | 64 | 34 | 1.0 | 4.0 | 0.00 | 0.00 | 0.00 | 56 | 1015.8 |
| 20260509185040 | 64 | 0 | 0.0 | 4.0 | 0.00 | 0.00 | 0.00 | 55 | 1015.8 |
| 20260509184553 | 64 | 9 | 1.0 | 4.0 | 0.00 | 0.00 | 0.00 | 54 | 1015.8 |
| 20260509184039 | 65 | 0 | 0.0 | 4.0 | 0.00 | 0.00 | 0.00 | 54 | 1015.8 |
| 20260509183540 | 65 | 26 | 1.0 | 4.0 | 0.00 | 0.00 | 0.00 | 53 | 1015.8 |
| 20260509183049 | 65 | 0 | 1.0 | 4.0 | 0.00 | 0.00 | 0.00 | 53 | 1015.8 |
| 20260509182542 | 65 | 63 | 1.0 | 4.0 | 0.00 | 0.00 | 0.00 | 53 | 1015.8 |
| 20260509182040 | 66 | 26 | 0.0 | 4.0 | 0.00 | 0.00 | 0.00 | 52 | 1015.9 |
| 20260509181549 | 66 | 56 | 1.0 | 4.0 | 0.00 | 0.00 | 0.00 | 51 | 1015.9 |
| 20260509181041 | 66 | 51 | 1.0 | 4.0 | 0.00 | 0.00 | 0.00 | 51 | 1015.9 |
| 20260509180540 | 67 | 0 | 1.0 | 4.0 | 0.00 | 0.00 | 0.00 | 50 | 1015.9 |
| 20260509180047 | 67 | 0 | 1.0 | 4.0 | 0.00 | 0.00 | 0.00 | 50 | 1015.8 |
| 20260509175540 | 67 | 265 | 0.0 | 4.0 | 0.00 | 0.00 | 0.00 | 50 | 1015.7 |
| 20260509175040 | 67 | 265 | 1.0 | 4.0 | 0.00 | 0.00 | 0.00 | 50 | 1015.7 |
| 20260509174546 | 68 | 334 | 1.0 | 4.0 | 0.00 | 0.00 | 0.00 | 49 | 1015.7 |
| 20260509174039 | 68 | 51 | 0.0 | 5.0 | 0.00 | 0.00 | 0.00 | 51 | 1015.7 |
| 20260509173542 | 68 | 0 | 1.0 | 5.0 | 0.00 | 0.00 | 0.00 | 48 | 1015.7 |
| 20260509173116 | 68 | 26 | 2.0 | 5.0 | 0.00 | 0.00 | 0.00 | 48 | 1015.6 |
| 20260509172541 | 68 | 51 | 2.0 | 6.0 | 0.00 | 0.00 | 0.00 | 47 | 1015.6 |
| 20260509172040 | 69 | 0 | 1.0 | 6.0 | 0.00 | 0.00 | 0.00 | 46 | 1015.6 |
| 20260509171546 | 69 | 30 | 1.0 | 6.0 | 0.00 | 0.00 | 0.00 | 46 | 1015.5 |
| 20260509171040 | 69 | 257 | 1.0 | 5.0 | 0.00 | 0.00 | 0.00 | 46 | 1015.4 |
| 20260509170543 | 69 | 26 | 1.0 | 4.0 | 0.00 | 0.00 | 0.00 | 48 | 1015.5 |
| 20260509170053 | 69 | 309 | 0.0 | 3.0 | 0.00 | 0.00 | 0.00 | 46 | 1015.5 |
| 20260509165539 | 68 | 0 | 0.0 | 3.0 | 0.00 | 0.00 | 0.00 | 46 | 1015.7 |
| 20260509165040 | 68 | 34 | 0.0 | 4.0 | 0.00 | 0.00 | 0.00 | 47 | 1015.8 |
| 20260509164557 | 67 | 291 | 1.0 | 4.0 | 0.00 | 0.00 | 0.00 | 49 | 1015.8 |
| 20260509164040 | 67 | 0 | 0.0 | 3.0 | 0.00 | 0.00 | 0.00 | 48 | 1015.8 |
| 20260509163541 | 68 | 334 | 1.0 | 4.0 | 0.00 | 0.00 | 0.00 | 48 | 1015.8 |
| 20260509163048 | 68 | 309 | 1.0 | 5.0 | 0.00 | 0.00 | 0.00 | 48 | 1015.7 |
| 20260509162542 | 68 | 9 | 1.0 | 5.0 | 0.00 | 0.00 | 0.00 | 48 | 1015.8 |
| 20260509162039 | 68 | 309 | 1.0 | 6.0 | 0.00 | 0.00 | 0.00 | 47 | 1015.8 |
| 20260509161550 | 69 | 0 | 1.0 | 6.0 | 0.00 | 0.00 | 0.00 | 45 | 1015.8 |
| 20260509161043 | 70 | 59 | 1.0 | 6.0 | 0.00 | 0.00 | 0.00 | 45 | 1015.8 |
| 20260509160539 | 70 | 280 | 1.0 | 8.0 | 0.00 | 0.00 | 0.00 | 45 | 1015.8 |
| 20260509160051 | 71 | 295 | 2.0 | 8.0 | 0.00 | 0.00 | 0.00 | 45 | 1015.8 |
| 20260509155540 | 71 | 45 | 2.0 | 7.0 | 0.00 | 0.00 | 0.00 | 43 | 1015.9 |
| 20260509155040 | 71 | 51 | 1.0 | 6.0 | 0.00 | 0.00 | 0.00 | 42 | 1015.9 |
| 20260509154547 | 71 | 0 | 1.0 | 6.0 | 0.00 | 0.00 | 0.00 | 45 | 1016.0 |
| 20260509154041 | 71 | 129 | 1.0 | 5.0 | 0.00 | 0.00 | 0.00 | 44 | 1015.9 |
| 20260509153543 | 71 | 51 | 1.0 | 5.0 | 0.00 | 0.00 | 0.00 | 44 | 1016.0 |
| 20260509153046 | 71 | 265 | 1.0 | 8.0 | 0.00 | 0.00 | 0.00 | 45 | 1015.9 |
| 20260509152541 | 71 | 0 | 1.0 | 8.0 | 0.00 | 0.00 | 0.00 | 45 | 1016.0 |
| 20260509152041 | 71 | 117 | 2.0 | 8.0 | 0.00 | 0.00 | 0.00 | 46 | 1016.0 |
| 20260509151605 | 70 | 113 | 3.0 | 8.0 | 0.00 | 0.00 | 0.00 | 44 | 1016.1 |
| 20260509151043 | 70 | 153 | 2.0 | 6.0 | 0.00 | 0.00 | 0.00 | 43 | 1016.2 |
| 20260509150540 | 70 | 219 | 2.0 | 7.0 | 0.00 | 0.00 | 0.00 | 43 | 1016.1 |
| 20260509150050 | 70 | 9 | 1.0 | 8.0 | 0.00 | 0.00 | 0.00 | 43 | 1016.1 |
| 20260509145540 | 70 | 120 | 3.0 | 8.0 | 0.00 | 0.00 | 0.00 | 43 | 1016.2 |
| 20260509145039 | 71 | 242 | 3.0 | 7.0 | 0.00 | 0.00 | 0.00 | 44 | 1016.3 |
| 20260509144542 | 70 | 110 | 1.0 | 6.0 | 0.00 | 0.00 | 0.00 | 45 | 1016.3 |
| 20260509144042 | 69 | 142 | 1.0 | 8.0 | 0.00 | 0.00 | 0.00 | 45 | 1016.4 |
| 20260509143541 | 70 | 140 | 2.0 | 8.0 | 0.00 | 0.00 | 0.00 | 48 | 1016.4 |
| 20260509143053 | 69 | 9 | 2.0 | 8.0 | 0.00 | 0.00 | 0.00 | 45 | 1016.5 |
| 20260509142543 | 70 | 124 | 1.0 | 7.0 | 0.00 | 0.00 | 0.00 | 45 | 1016.5 |
| 20260509142045 | 71 | 309 | 1.0 | 8.0 | 0.00 | 0.00 | 0.00 | 45 | 1016.5 |
| 20260509141552 | 71 | 102 | 2.0 | 8.0 | 0.00 | 0.00 | 0.00 | 45 | 1016.5 |
| 20260509141041 | 71 | 79 | 1.0 | 7.0 | 0.00 | 0.00 | 0.00 | 45 | 1016.5 |
| 20260509140542 | 72 | 128 | 2.0 | 7.0 | 0.00 | 0.00 | 0.00 | 44 | 1016.6 |
| 20260509140052 | 71 | 38 | 2.0 | 7.0 | 0.00 | 0.00 | 0.00 | 49 | 1016.6 |
| 20260509135541 | 71 | 221 | 1.0 | 6.0 | 0.00 | 0.00 | 0.00 | 44 | 1016.6 |
| 20260509135038 | 70 | 255 | 1.0 | 7.0 | 0.00 | 0.00 | 0.00 | 45 | 1016.6 |
| 20260509134546 | 70 | 50 | 1.0 | 8.0 | 0.00 | 0.00 | 0.00 | 47 | 1016.7 |
| 20260509134042 | 71 | 141 | 1.0 | 8.0 | 0.00 | 0.00 | 0.00 | 47 | 1016.7 |
| 20260509133542 | 70 | 165 | 2.0 | 8.0 | 0.00 | 0.00 | 0.00 | 45 | 1016.8 |
| 20260509133050 | 70 | 110 | 1.0 | 6.0 | 0.00 | 0.00 | 0.00 | 45 | 1016.9 |
| 20260509132539 | 70 | 120 | 1.0 | 8.0 | 0.00 | 0.00 | 0.00 | 44 | 1017.0 |
| 20260509132039 | 71 | 102 | 3.0 | 8.0 | 0.00 | 0.00 | 0.00 | 44 | 1017.0 |
| 20260509131602 | 71 | 169 | 1.0 | 7.0 | 0.00 | 0.00 | 0.00 | 46 | 1017.0 |
| 20260509131042 | 70 | 144 | 2.0 | 8.0 | 0.00 | 0.00 | 0.00 | 46 | 1017.1 |
| 20260509130542 | 70 | 9 | 1.0 | 8.0 | 0.00 | 0.00 | 0.00 | 47 | 1017.2 |
| 20260509130112 | 70 | 265 | 2.0 | 8.0 | 0.00 | 0.00 | 0.00 | 47 | 1017.2 |
| 20260509125541 | 71 | 93 | 1.0 | 6.0 | 0.00 | 0.00 | 0.00 | 47 | 1017.2 |
| 20260509125044 | 71 | 344 | 2.0 | 6.0 | 0.00 | 0.00 | 0.00 | 48 | 1017.3 |
| 20260509124549 | 70 | 44 | 1.0 | 6.0 | 0.00 | 0.00 | 0.00 | 48 | 1017.4 |
| 20260509124038 | 70 | 0 | 2.0 | 6.0 | 0.00 | 0.00 | 0.00 | 46 | 1017.4 |
| 20260509123540 | 71 | 56 | 1.0 | 5.0 | 0.00 | 0.00 | 0.00 | 47 | 1017.4 |
| 20260509123117 | 70 | 137 | 1.0 | 9.0 | 0.00 | 0.00 | 0.00 | 47 | 1017.5 |
| 20260509122540 | 70 | 178 | 2.0 | 9.0 | 0.00 | 0.00 | 0.00 | 47 | 1017.5 |
| 20260509122038 | 71 | 239 | 2.0 | 5.0 | 0.00 | 0.00 | 0.00 | 47 | 1017.6 |
| 20260509121555 | 69 | 113 | 1.0 | 5.0 | 0.00 | 0.00 | 0.00 | 50 | 1017.6 |
| 20260509121043 | 69 | 137 | 1.0 | 5.0 | 0.00 | 0.00 | 0.00 | 51 | 1017.7 |
| 20260509120539 | 67 | 0 | 1.0 | 6.0 | 0.00 | 0.00 | 0.00 | 53 | 1017.8 |
| 20260509120053 | 67 | 0 | 1.0 | 8.0 | 0.00 | 0.00 | 0.00 | 51 | 1017.7 |
| 20260509115541 | 68 | 51 | 1.0 | 9.0 | 0.00 | 0.00 | 0.00 | 51 | 1017.8 |
| 20260509115041 | 69 | 36 | 2.0 | 9.0 | 0.00 | 0.00 | 0.00 | 49 | 1017.8 |
| 20260509114614 | 71 | 175 | 2.0 | 9.0 | 0.00 | 0.00 | 0.00 | 50 | 1017.8 |
| 20260509114042 | 70 | 46 | 2.0 | 10.0 | 0.00 | 0.00 | 0.00 | 47 | 1017.8 |
| 20260509113542 | 69 | 312 | 2.0 | 11.0 | 0.00 | 0.00 | 0.00 | 49 | 1017.9 |
| 20260509113058 | 69 | 38 | 3.0 | 11.0 | 0.00 | 0.00 | 0.00 | 49 | 1018.0 |
| 20260509112542 | 70 | 36 | 3.0 | 10.0 | 0.00 | 0.00 | 0.00 | 50 | 1018.0 |
| 20260509112040 | 70 | 47 | 3.0 | 9.0 | 0.00 | 0.00 | 0.00 | 49 | 1018.1 |
| 20260509111551 | 68 | 221 | 1.0 | 4.0 | 0.00 | 0.00 | 0.00 | 52 | 1018.1 |
| 20260509111041 | 67 | 76 | 1.0 | 5.0 | 0.00 | 0.00 | 0.00 | 50 | 1018.0 |
| 20260509110541 | 67 | 68 | 1.0 | 6.0 | 0.00 | 0.00 | 0.00 | 50 | 1018.1 |
| 20260509110056 | 69 | 85 | 1.0 | 9.0 | 0.00 | 0.00 | 0.00 | 51 | 1018.3 |
| 20260509105540 | 68 | 9 | 1.0 | 9.0 | 0.00 | 0.00 | 0.00 | 49 | 1018.3 |
| 20260509105042 | 68 | 341 | 2.0 | 9.0 | 0.00 | 0.00 | 0.00 | 49 | 1018.3 |
| 20260509104548 | 69 | 295 | 2.0 | 7.0 | 0.00 | 0.00 | 0.00 | 50 | 1018.4 |
| 20260509104043 | 69 | 106 | 1.0 | 8.0 | 0.00 | 0.00 | 0.00 | 49 | 1018.4 |
| 20260509103539 | 69 | 254 | 2.0 | 8.0 | 0.00 | 0.00 | 0.00 | 49 | 1018.4 |
| 20260509103049 | 69 | 9 | 3.0 | 9.0 | 0.00 | 0.00 | 0.00 | 49 | 1018.4 |
| 20260509102542 | 68 | 41 | 2.0 | 9.0 | 0.00 | 0.00 | 0.00 | 52 | 1018.5 |
| 20260509102040 | 68 | 178 | 1.0 | 9.0 | 0.00 | 0.00 | 0.00 | 49 | 1018.4 |
| 20260509101558 | 68 | 22 | 1.0 | 9.0 | 0.00 | 0.00 | 0.00 | 52 | 1018.5 |
| 20260509101040 | 67 | 93 | 3.0 | 9.0 | 0.00 | 0.00 | 0.00 | 51 | 1018.4 |
| 20260509100540 | 67 | 282 | 1.0 | 9.0 | 0.00 | 0.00 | 0.00 | 53 | 1018.4 |
| 20260509100051 | 66 | 0 | 2.0 | 6.0 | 0.00 | 0.00 | 0.00 | 51 | 1018.5 |
| 20260509095538 | 67 | 265 | 1.0 | 12.0 | 0.00 | 0.00 | 0.00 | 53 | 1018.4 |
| 20260509095041 | 67 | 34 | 1.0 | 12.0 | 0.00 | 0.00 | 0.00 | 53 | 1018.4 |
| 20260509094543 | 67 | 68 | 2.0 | 8.0 | 0.00 | 0.00 | 0.00 | 54 | 1018.4 |
| 20260509094039 | 67 | 124 | 2.0 | 7.0 | 0.00 | 0.00 | 0.00 | 55 | 1018.5 |
| 20260509093542 | 67 | 265 | 2.0 | 7.0 | 0.00 | 0.00 | 0.00 | 55 | 1018.5 |
| 20260509093048 | 67 | 9 | 1.0 | 6.0 | 0.00 | 0.00 | 0.00 | 51 | 1018.5 |
| 20260509092542 | 67 | 72 | 1.0 | 8.0 | 0.00 | 0.00 | 0.00 | 55 | 1018.5 |
| 20260509092040 | 67 | 80 | 1.0 | 8.0 | 0.00 | 0.00 | 0.00 | 55 | 1018.5 |
| 20260509091551 | 66 | 338 | 2.0 | 8.0 | 0.00 | 0.00 | 0.00 | 56 | 1018.6 |
| 20260509091040 | 66 | 28 | 1.0 | 8.0 | 0.00 | 0.00 | 0.00 | 56 | 1018.5 |
| 20260509090544 | 66 | 36 | 2.0 | 7.0 | 0.00 | 0.00 | 0.00 | 55 | 1018.7 |
| 20260509090051 | 65 | 61 | 2.0 | 8.0 | 0.00 | 0.00 | 0.00 | 57 | 1018.6 |
| 20260509085542 | 65 | 0 | 2.0 | 8.0 | 0.00 | 0.00 | 0.00 | 58 | 1018.5 |
| 20260509085043 | 64 | 34 | 1.0 | 6.0 | 0.00 | 0.00 | 0.00 | 56 | 1018.6 |
| 20260509084601 | 64 | 249 | 2.0 | 6.0 | 0.00 | 0.00 | 0.00 | 59 | 1018.6 |
| 20260509084042 | 64 | 9 | 1.0 | 6.0 | 0.00 | 0.00 | 0.00 | 59 | 1018.6 |
| 20260509083545 | 63 | 36 | 1.0 | 6.0 | 0.00 | 0.00 | 0.00 | 59 | 1018.6 |
| 20260509083049 | 63 | 265 | 1.0 | 5.0 | 0.00 | 0.00 | 0.00 | 62 | 1018.7 |
| 20260509082540 | 63 | 295 | 1.0 | 5.0 | 0.00 | 0.00 | 0.00 | 64 | 1018.7 |
| 20260509082040 | 62 | 123 | 1.0 | 5.0 | 0.00 | 0.00 | 0.00 | 62 | 1018.7 |
| 20260509081548 | 62 | 9 | 1.0 | 5.0 | 0.00 | 0.00 | 0.00 | 64 | 1018.8 |
| 20260509081043 | 62 | 61 | 1.0 | 6.0 | 0.00 | 0.00 | 0.00 | 65 | 1018.8 |
| 20260509080541 | 61 | 44 | 2.0 | 6.0 | 0.00 | 0.00 | 0.00 | 66 | 1018.9 |
| 20260509080059 | 61 | 93 | 1.0 | 5.0 | 0.00 | 0.00 | 0.00 | 67 | 1018.8 |
| 20260509075539 | 61 | 117 | 0.0 | 6.0 | 0.00 | 0.00 | 0.00 | 68 | 1018.9 |